Content
SEND FEEDBACK

Daily
Averages
Monthly
Summary
United States of America

MANGILAO, GUAM


Home > North America > United States > Guam
Elevation: 18 meters     Latitude: 13 27N     Longitude: 144 49E

WEATHER
 
SELECT A DAY
Number of Records: 341,631;   Date Range: 1/1/95 - 7/20/14
 
SHARE

PRINT THIS DATA

[ ← Previous Day ]
WEATHER ALMANAC - 17 FEBRUARY, 2013
[ Next Day → ]
[ °F ]   °C
Weather ElementAverageHighLow
Temperature24.5 °C28.9 °C (11:55 am)23 °C (5:37 pm)
Dewpoint22.4 °C23.2 °C (4:55 pm)21 °C (8:31 am)
Humidity88.4 %100 % (6:07 pm)64 % (10:55 am)
Barometer1008.8 hPa1010.2 hPa (8:55 am)1007.1 hPa (3:16 pm)
Wind Speed35.4 km/h50.1 km/h (11:26 pm)
Wind Gust59.2 km/h (5:59 pm)
Weather ElementAverage
Visibility12.1 km
Wind DirectionENE (50.9 °)

Weather ElementTotal
Precipitation0.76 mm
Cooling Degree Days7.6 (Base 18.3)
Growing Degree Days15.9 (Base 10)
Averaged from 181 records on 17 February, 2013
WEATHER CONDITIONS BREAKOUT
WIND DIRECTION BREAKOUT
WEATHER BY HOUR - 17 FEBRUARY, 2013
[ °F ]   °C
Local TimeTemperatureDewpointHumidityBarometerVisibilityWind DirectionWind SpeedGust SpeedPrecipitationEventsConditions
12:34 AM25 °C22 °C83 %1008.8 hPa16.1 kmENE (60°)25.9 km/hMostly Cloudy
12:35 AM25 °C22 °C83 %1008.8 hPa16.1 kmENE (60°)25.9 km/hMostly Cloudy
12:55 AM25.5 °C22.5 °C83 %1008.8 hPa16.1 kmNE (50°)29.6 km/hOvercast
1:26 AM25 °C22 °C83 %1008.5 hPa16.1 kmNE (50°)27.8 km/hMostly Cloudy
1:29 AM25 °C22 °C83 %1008.5 hPa16.1 kmNE (40°)31.5 km/hMostly Cloudy
1:32 AM25 °C22 °C83 %1008.5 hPa16.1 kmNE (50°)35.2 km/hMostly Cloudy
1:40 AM25 °C22 °C83 %1008.5 hPa16.1 kmNE (50°)29.6 km/hMostly Cloudy
1:42 AM25 °C22 °C83 %1008.5 hPa16.1 kmNE (50°)31.5 km/hMostly Cloudy
1:55 AM25.3 °C22.3 °C83 %1008.5 hPa16.1 kmNE (50°)31.5 km/h42.6 km/hScattered Clouds
2:17 AM25 °C22 °C83 %1008.5 hPa16.1 kmNE (50°)22.2 km/hMostly Cloudy
2:18 AM25 °C22 °C83 %1008.5 hPa16.1 kmNE (50°)25.9 km/hMostly Cloudy
2:21 AM25 °C22 °C83 %1008.5 hPa16.1 kmNE (40°)29.6 km/h38.9 km/hMostly Cloudy
2:24 AM25 °C22 °C83 %1008.5 hPa16.1 kmNE (50°)29.6 km/h38.9 km/hMostly Cloudy
2:25 AM25 °C22 °C83 %1008.5 hPa16.1 kmNE (50°)27.8 km/h38.9 km/hMostly Cloudy
2:41 AM25 °C22 °C83 %1008.1 hPa16.1 kmNE (50°)27.8 km/hMostly Cloudy
2:52 AM25 °C22 °C83 %1008.1 hPa16.1 kmNE (40°)27.8 km/hMostly Cloudy
2:55 AM25.3 °C22 °C82 %1008.1 hPa16.1 kmNE (50°)29.6 km/hMostly Cloudy
2:58 AM25 °C22 °C83 %1008.1 hPa16.1 kmNE (50°)29.6 km/hScattered Clouds
3:09 AM25 °C22 °C83 %1007.8 hPa16.1 kmNE (40°)29.6 km/hMostly Cloudy
3:13 AM25 °C22 °C83 %1007.8 hPa16.1 kmNE (40°)25.9 km/hScattered Clouds
3:21 AM25 °C23 °C89 %1007.8 hPa16.1 kmNE (40°)29.6 km/h38.9 km/hMostly Cloudy
3:45 AM25 °C22 °C83 %1007.8 hPa16.1 kmENE (60°)25.9 km/hRainLight Rain
3:55 AM24.9 °C22.6 °C87 %1007.8 hPa16.1 kmNE (40°)35.2 km/h0 mmRainLight Rain
4:03 AM25 °C23 °C89 %1007.8 hPa16.1 kmNE (50°)33.3 km/h40.7 km/hMostly Cloudy
4:05 AM25 °C22 °C83 %1007.8 hPa16.1 kmNE (50°)31.5 km/h40.7 km/hRainLight Rain
4:26 AM25 °C22 °C83 %1007.8 hPa16.1 kmENE (60°)31.5 km/hMostly Cloudy
4:55 AM24.8 °C21.6 °C82 %1007.8 hPa16.1 kmNE (50°)33.3 km/h0.25 mmPartly Cloudy
5:30 AM25 °C23 °C89 %1008.1 hPa16.1 kmNNE (30°)33.3 km/hMostly Cloudy
5:35 AM25 °C23 °C89 %1008.1 hPa16.1 kmNNE (30°)27.8 km/hMostly Cloudy
5:41 AM25 °C23 °C89 %1008.1 hPa16.1 kmNE (40°)24.1 km/hMostly Cloudy
5:55 AM25.1 °C22.1 °C83 %1008.5 hPa16.1 kmNE (40°)27.8 km/hOvercast
6:03 AM25 °C22 °C83 %1008.5 hPa16.1 kmNE (40°)31.5 km/hMostly Cloudy
6:09 AM25 °C22 °C83 %1008.5 hPa16.1 kmNE (40°)31.5 km/hMostly Cloudy
6:10 AM25 °C22 °C83 %1008.5 hPa16.1 kmNE (50°)29.6 km/hMostly Cloudy
6:11 AM25 °C22 °C83 %1008.5 hPa16.1 kmNE (40°)29.6 km/hMostly Cloudy
6:24 AM25 °C22 °C83 %1008.8 hPa16.1 kmNE (40°)33.3 km/hMostly Cloudy
6:36 AM25 °C22 °C83 %1008.8 hPa16.1 kmNE (40°)31.5 km/h44.4 km/hMostly Cloudy
6:40 AM25 °C22 °C83 %1008.8 hPa16.1 kmNE (40°)37 km/hScattered Clouds
6:47 AM25 °C22 °C83 %1009.1 hPa16.1 kmNE (50°)29.6 km/hMostly Cloudy
6:55 AM25.3 °C22.1 °C82 %1009.1 hPa16.1 kmNE (40°)29.6 km/hMostly Cloudy
7:03 AM25 °C22 °C83 %1009.1 hPa16.1 kmNNE (30°)37 km/h42.6 km/hLight Drizzle
7:13 AM25 °C22 °C83 %1009.1 hPa16.1 kmNNE (30°)33.3 km/hOvercast
7:53 AM26 °C22 °C78 %1009.5 hPa16.1 kmNE (40°)37 km/h51.8 km/hMostly Cloudy
7:55 AM25.8 °C21.6 °C77 %1009.5 hPa16.1 kmNE (40°)37 km/h51.8 km/h0 mmMostly Cloudy
8:24 AM26 °C22 °C78 %1009.8 hPa16.1 kmNE (40°)35.2 km/h48.1 km/hMostly Cloudy
8:31 AM27 °C21 °C70 %1009.8 hPa16.1 kmNE (40°)37 km/hScattered Clouds
8:55 AM27.1 °C21.4 °C71 %1010.2 hPa16.1 kmNE (40°)37 km/hClear
9:44 AM27 °C22 °C74 %1010.2 hPa16.1 kmNNE (30°)37 km/h46.3 km/hMostly Cloudy
9:55 AM27.4 °C22.3 °C74 %1010.2 hPa16.1 kmNE (50°)37 km/h46.3 km/hMostly Cloudy
10:03 AM28 °C22 °C70 %1010.2 hPa16.1 kmNE (50°)37 km/h51.8 km/hScattered Clouds
10:06 AM28 °C23 °C74 %1010.2 hPa16.1 kmNE (50°)38.9 km/h51.8 km/hMostly Cloudy
10:09 AM28 °C22 °C70 %1010.2 hPa16.1 kmNE (40°)40.7 km/h51.8 km/hScattered Clouds
10:55 AM28.8 °C21.3 °C64 %1009.8 hPa16.1 kmNE (40°)37 km/h44.4 km/hClear
11:55 AM28.9 °C21.9 °C66 %1009.5 hPa16.1 kmNE (40°)33.3 km/hClear
12:55 PM27.6 °C21.6 °C70 %1008.8 hPa16.1 kmNE (40°)38.9 km/h53.8 km/hMostly Cloudy
1:00 PM27 °C23 °C79 %1008.8 hPa14.5 kmNNE (30°)35.2 km/h53.8 km/hLight Drizzle
1:04 PM27 °C23 °C79 %1008.8 hPa9.7 kmNE (40°)38.9 km/h50.1 km/hRainHeavy Rain
1:13 PM26 °C23 °C83 %1008.8 hPa11.3 kmNE (40°)33.3 km/hRainLight Rain
1:14 PM26 °C23 °C83 %1008.8 hPa12.9 kmNNE (30°)33.3 km/hMostly Cloudy
1:24 PM26 °C23 °C83 %1008.5 hPa16.1 kmNNE (30°)22.2 km/h38.9 km/hMostly Cloudy
1:52 PM27 °C23 °C79 %1008.1 hPa16.1 kmNE (40°)35.2 km/hMostly Cloudy
1:54 PM27 °C23 °C79 %1008.1 hPa16.1 kmNE (40°)38.9 km/hMostly Cloudy
1:55 PM26.9 °C22.4 °C76 %1008.1 hPa16.1 kmNE (40°)38.9 km/h0.25 mmMostly Cloudy
2:05 PM27 °C22 °C74 %1008.1 hPa16.1 kmNE (40°)37 km/h53.8 km/hMostly Cloudy
2:43 PM27 °C22 °C74 %1007.5 hPa16.1 kmNE (40°)38.9 km/h50.1 km/hMostly Cloudy
2:48 PM27 °C22 °C74 %1007.5 hPa16.1 kmNE (40°)42.6 km/h50.1 km/hMostly Cloudy
2:49 PM27 °C22 °C74 %1007.5 hPa16.1 kmNE (40°)40.7 km/h50.1 km/hMostly Cloudy
2:55 PM27.1 °C22.3 °C75 %1007.5 hPa16.1 kmNE (40°)37 km/h48.1 km/hOvercast
2:59 PM27 °C22 °C74 %1007.5 hPa16.1 kmNE (40°)38.9 km/h48.1 km/hOvercast
3:01 PM27 °C22 °C74 %1007.5 hPa16.1 kmNE (40°)38.9 km/h48.1 km/hOvercast
3:03 PM27 °C22 °C74 %1007.5 hPa16.1 kmNE (40°)38.9 km/h48.1 km/hOvercast
3:16 PM26 °C23 °C83 %1007.1 hPa16.1 kmENE (60°)25.9 km/h38.9 km/hOvercast
3:21 PM26 °C23 °C83 %1007.5 hPa11.3 kmNE (50°)44.4 km/h50.1 km/hRainRain
3:23 PM26 °C23 °C83 %1007.5 hPa8 kmNE (40°)44.4 km/h50.1 km/hRainRain
3:26 PM25 °C23 °C89 %1007.5 hPa6.4 kmNNE (30°)31.5 km/h50.1 km/hRainLight Rain
3:29 PM25 °C23 °C89 %1007.5 hPa6.4 kmNE (50°)38.9 km/h53.8 km/hRainLight Rain
3:31 PM25 °C23 °C89 %1007.5 hPa6.4 kmENE (60°)42.6 km/h53.8 km/hRainLight Rain
3:32 PM25 °C23 °C89 %1007.5 hPa6.4 kmENE (60°)44.4 km/h53.8 km/hRainLight Rain
3:36 PM24 °C23 °C94 %1007.5 hPa6.4 kmENE (70°)35.2 km/h53.8 km/hRainLight Rain
3:47 PM24 °C23 °C94 %1007.5 hPa8 kmENE (60°)42.6 km/h55.5 km/hLight Drizzle
3:52 PM24 °C23 °C94 %1007.5 hPa4.8 kmENE (60°)38.9 km/h55.5 km/hOvercast
3:53 PM24 °C23 °C94 %1007.5 hPa4.8 kmENE (60°)35.2 km/h55.5 km/hRainLight Rain
3:55 PM23.7 °C22.7 °C94 %1007.5 hPa4.8 kmENE (60°)33.3 km/h55.5 km/h0.25 mmRainLight Rain
3:57 PM24 °C23 °C94 %1007.5 hPa4.8 kmNE (50°)33.3 km/h55.5 km/hOvercast
4:02 PM24 °C22 °C89 %1007.5 hPa12.9 kmENE (60°)33.3 km/h42.6 km/hOvercast
4:09 PM24 °C22 °C89 %1007.5 hPa16.1 kmENE (60°)38.9 km/h48.1 km/hOvercast
4:19 PM24 °C23 °C94 %1007.5 hPa16.1 kmENE (60°)38.9 km/h55.5 km/hOvercast
4:23 PM24 °C23 °C94 %1007.5 hPa16.1 kmENE (60°)37 km/h48.1 km/hOvercast
4:31 PM24 °C22 °C89 %1007.5 hPa16.1 kmNE (50°)33.3 km/h40.7 km/hOvercast
4:40 PM25 °C23 °C89 %1007.5 hPa16.1 kmNE (50°)33.3 km/h40.7 km/hMostly Cloudy
4:55 PM25.1 °C23.2 °C89 %1007.5 hPa16.1 kmNE (50°)35.2 km/h48.1 km/h0 mmMostly Cloudy
4:56 PM25 °C23 °C89 %1007.8 hPa16.1 kmENE (60°)40.7 km/h50.1 km/hLight Drizzle
4:58 PM25 °C23 °C89 %1007.5 hPa14.5 kmENE (60°)38.9 km/h50.1 km/hLight Drizzle
5:09 PM24 °C23 °C94 %1008.1 hPa11.3 kmNE (50°)42.6 km/h51.8 km/hOvercast
5:16 PM24 °C22 °C89 %1008.1 hPa11.3 kmNE (50°)37 km/h50.1 km/hLight Drizzle
5:30 PM24 °C23 °C94 %1008.1 hPa4 kmNE (40°)40.7 km/h50.1 km/hRainRain
5:32 PM24 °C23 °C94 %1008.1 hPa3.2 kmNE (40°)40.7 km/h51.8 km/hRainHeavy Rain
5:34 PM24 °C22 °C89 %1008.1 hPa3.2 kmNE (40°)42.6 km/h53.8 km/hRainHeavy Rain
5:37 PM23 °C22 °C94 %1008.1 hPa4 kmNE (40°)40.7 km/h53.8 km/hRainLight Rain
5:38 PM23 °C22 °C94 %1008.1 hPa4.8 kmNE (50°)40.7 km/h53.8 km/hRainLight Rain
5:51 PM24 °C22 °C89 %1008.1 hPa12.9 kmENE (60°)35.2 km/h50.1 km/hOvercast
5:52 PM24 °C22 °C89 %1008.1 hPa9.7 kmENE (60°)42.6 km/h50.1 km/hLight Drizzle
5:55 PM23.8 °C22.3 °C91 %1008.5 hPa6.4 kmENE (60°)38.9 km/h53.8 km/h0 mmLight Drizzle
5:59 PM24 °C22 °C89 %1008.5 hPa6.4 kmENE (60°)46.3 km/h59.2 km/hLight Drizzle
6:07 PM23 °C23 °C100 %1008.5 hPa4 kmENE (60°)40.7 km/h59.2 km/hRainLight Rain
6:09 PM23 °C22 °C94 %1008.5 hPa4 kmENE (60°)40.7 km/h59.2 km/hOvercast
6:10 PM23 °C22 °C94 %1008.8 hPa3.2 kmENE (60°)37 km/h57.5 km/hOvercast
6:11 PM23 °C22 °C94 %1008.8 hPa4 kmENE (60°)37 km/h57.5 km/hRainLight Rain
6:12 PM23 °C22 °C94 %1008.8 hPa4 kmENE (60°)38.9 km/h57.5 km/hRainLight Rain
6:14 PM23 °C22 °C94 %1008.5 hPa4 kmNE (50°)35.2 km/h48.1 km/hRainLight Rain
6:15 PM23 °C22 °C94 %1008.5 hPa4.8 kmNE (50°)33.3 km/h48.1 km/hRainLight Rain
6:24 PM23 °C22 °C94 %1008.5 hPa14.5 kmENE (60°)31.5 km/h42.6 km/hOvercast
6:36 PM24 °C22 °C89 %1008.5 hPa16.1 kmENE (60°)35.2 km/h42.6 km/hOvercast
6:39 PM24 °C22 °C89 %1008.5 hPa12.9 kmENE (70°)33.3 km/h42.6 km/hOvercast
6:40 PM24 °C22 °C89 %1008.5 hPa11.3 kmENE (70°)33.3 km/h42.6 km/hRainLight Rain
6:43 PM24 °C23 °C94 %1008.8 hPa8 kmENE (60°)35.2 km/h48.1 km/hLight Drizzle
6:44 PM24 °C23 °C94 %1008.8 hPa8 kmENE (70°)33.3 km/h48.1 km/hRainLight Rain
6:46 PM24 °C23 °C94 %1008.8 hPa6.4 kmENE (60°)40.7 km/h48.1 km/hRainLight Rain
6:55 PM23.3 °C22 °C92 %1008.8 hPa11.3 kmENE (60°)40.7 km/h51.8 km/h0 mmRainLight Rain
6:57 PM23 °C22 °C94 %1008.8 hPa12.9 kmENE (70°)38.9 km/h51.8 km/hMostly Cloudy
7:06 PM23 °C22 °C94 %1009.1 hPa16.1 kmENE (70°)38.9 km/h50.1 km/hOvercast
7:07 PM23 °C23 °C100 %1009.1 hPa16.1 kmENE (70°)37 km/h50.1 km/hOvercast
7:08 PM23 °C23 °C100 %1009.1 hPa16.1 kmEast (80°)35.2 km/h50.1 km/hOvercast
7:10 PM23 °C22 °C94 %1009.1 hPa14.5 kmEast (80°)38.9 km/h48.1 km/hOvercast
7:17 PM23 °C22 °C94 %1009.1 hPa9.7 kmEast (80°)33.3 km/h50.1 km/hRainLight Rain
7:40 PM23 °C22 °C94 %1009.5 hPa6.4 kmENE (60°)31.5 km/hLight Drizzle
7:52 PM23 °C23 °C100 %1009.5 hPa14.5 kmNE (50°)31.5 km/h42.6 km/hOvercast
7:54 PM23 °C23 °C100 %1009.5 hPa12.9 kmENE (60°)38.9 km/h48.1 km/hOvercast
7:55 PM23.3 °C22.6 °C96 %1009.5 hPa11.3 kmENE (60°)42.6 km/h57.5 km/h0 mmOvercast
7:59 PM23 °C22 °C94 %1009.5 hPa9.7 kmNE (50°)38.9 km/h57.5 km/hRainLight Rain
8:17 PM23 °C22 °C94 %1009.8 hPa16.1 kmNE (50°)33.3 km/hOvercast
8:46 PM24 °C23 °C94 %1009.8 hPa16.1 kmNE (40°)31.5 km/h42.6 km/hMostly Cloudy
8:51 PM24 °C23 °C94 %1009.8 hPa16.1 kmNE (40°)33.3 km/h42.6 km/hOvercast
8:55 PM23.6 °C22.8 °C95 %1009.8 hPa16.1 kmNE (40°)31.5 km/h42.6 km/h0 mmMostly Cloudy
9:00 PM24 °C23 °C94 %1009.8 hPa11.3 kmNE (40°)35.2 km/hLight Drizzle
9:01 PM24 °C23 °C94 %1009.8 hPa11.3 kmNE (40°)35.2 km/hLight Drizzle
9:08 PM23 °C23 °C100 %1009.8 hPa12.9 kmNE (50°)33.3 km/hLight Drizzle
9:09 PM23 °C23 °C100 %1009.8 hPa12.9 kmNE (50°)35.2 km/hOvercast
9:10 PM23 °C23 °C100 %1009.8 hPa14.5 kmNE (50°)33.3 km/hOvercast
9:16 PM23 °C23 °C100 %1009.8 hPa8 kmNE (50°)27.8 km/h44.4 km/hRainLight Rain
9:17 PM23 °C23 °C100 %1009.8 hPa8 kmNE (50°)29.6 km/h44.4 km/hRainLight Rain
9:19 PM23 °C23 °C100 %1009.8 hPa6.4 kmNE (50°)37 km/h44.4 km/hRainLight Rain
9:29 PM23 °C23 °C100 %1010.2 hPa9.7 kmNE (50°)31.5 km/h44.4 km/hLight Drizzle
9:30 PM23 °C23 °C100 %1009.8 hPa9.7 kmNE (50°)29.6 km/h44.4 km/hLight Drizzle
9:32 PM23 °C23 °C100 %1009.8 hPa11.3 kmNE (50°)29.6 km/h44.4 km/hOvercast
9:33 PM23 °C23 °C100 %1009.8 hPa11.3 kmNE (50°)31.5 km/h44.4 km/hLight Drizzle
9:36 PM23 °C23 °C100 %1009.8 hPa9.7 kmNE (50°)37 km/h48.1 km/hOvercast
9:37 PM23 °C23 °C100 %1010.2 hPa9.7 kmNE (50°)37 km/h48.1 km/hRainLight Rain
9:48 PM23 °C23 °C100 %1010.2 hPa6.4 kmNE (50°)31.5 km/h42.6 km/hOvercast
9:49 PM23 °C23 °C100 %1010.2 hPa4.8 kmENE (60°)31.5 km/h42.6 km/hRainLight Rain
9:50 PM23 °C23 °C100 %1010.2 hPa4 kmENE (60°)33.3 km/h46.3 km/hRainHeavy Rain
9:55 PM23.4 °C22.7 °C96 %1010.2 hPa4 kmENE (60°)33.3 km/h46.3 km/h0 mmRainLight Rain
10:11 PM23 °C22 °C94 %1010.2 hPa4.8 kmNE (50°)48.1 km/hRainLight Rain
10:17 PM23 °C22 °C94 %1010.2 hPa4 kmNE (50°)35.2 km/hRainLight Rain
10:19 PM23 °C22 °C94 %1010.2 hPa4 kmENE (60°)42.6 km/h50.1 km/hRainLight Rain
10:22 PM23 °C22 °C94 %1010.2 hPa4 kmNE (50°)38.9 km/h50.1 km/hRainLight Rain
10:25 PM23 °C22 °C94 %1010.2 hPa3.2 kmENE (60°)42.6 km/h51.8 km/hRainLight Rain
10:27 PM23 °C23 °C100 %1010.2 hPa4 kmENE (60°)44.4 km/h53.8 km/hRainLight Rain
10:30 PM23 °C23 °C100 %1010.2 hPa4 kmENE (60°)44.4 km/h53.8 km/hOvercast
10:32 PM23 °C23 °C100 %1010.2 hPa4 kmENE (60°)38.9 km/h53.8 km/hOvercast
10:33 PM23 °C23 °C100 %1010.2 hPa4 kmENE (60°)42.6 km/h53.8 km/hRainLight Rain
10:34 PM23 °C22 °C94 %1010.2 hPa4 kmENE (60°)46.3 km/h53.8 km/hRainLight Rain
10:36 PM23 °C22 °C94 %1010.2 hPa4 kmENE (60°)38.9 km/h53.8 km/hRainLight Rain
10:37 PM23 °C22 °C94 %1010.2 hPa4 kmENE (60°)38.9 km/h51.8 km/hRainLight Rain
10:38 PM23 °C22 °C94 %1010.2 hPa4.8 kmENE (60°)38.9 km/h51.8 km/hRainLight Rain
10:40 PM23 °C22 °C94 %1010.2 hPa4.8 kmENE (70°)31.5 km/h51.8 km/hRainLight Rain
10:44 PM23 °C22 °C94 %1010.2 hPa6.4 kmENE (70°)37 km/h46.3 km/hOvercast
10:45 PM23 °C22 °C94 %1010.2 hPa8 kmENE (70°)37 km/h46.3 km/hRainLight Rain
10:46 PM23 °C22 °C94 %1010.2 hPa8 kmENE (70°)35.2 km/h46.3 km/hLight Drizzle
10:55 PM23 °C22.3 °C96 %1010.2 hPa14.5 kmENE (70°)25.9 km/h0 mmMostly Cloudy
10:58 PM23 °C22 °C94 %1009.8 hPa14.5 kmENE (70°)25.9 km/hOvercast
11:10 PM24 °C22 °C89 %1009.8 hPa16.1 kmNE (50°)31.5 km/h44.4 km/hMostly Cloudy
11:26 PM24 °C22 °C89 %1010.2 hPa9.7 kmNE (50°)50.1 km/h59.2 km/hRainLight Rain
11:29 PM24 °C22 °C89 %1010.2 hPa8 kmNE (50°)40.7 km/h59.2 km/hRainLight Rain
11:39 PM23 °C22 °C94 %1010.2 hPa16.1 kmNE (50°)35.2 km/h51.8 km/hRainLight Rain
11:40 PM23 °C22 °C94 %1010.2 hPa16.1 kmNE (50°)37 km/h51.8 km/hRainLight Rain
11:41 PM24 °C22 °C89 %1010.2 hPa16.1 kmNE (50°)40.7 km/h51.8 km/hRainLight Rain
11:42 PM24 °C22 °C89 %1009.8 hPa16.1 kmNE (50°)40.7 km/h51.8 km/hRainLight Rain
11:46 PM24 °C22 °C89 %1009.8 hPa16.1 kmNE (50°)31.5 km/h48.1 km/hOvercast
11:51 PM24 °C21 °C83 %1009.8 hPa16.1 kmNE (50°)38.9 km/hOvercast
11:55 PM23.8 °C21 °C84 %1009.8 hPa16.1 kmNE (50°)35.2 km/h0 mmOvercast
Hourly data recorded from PGUA, located 0 kilometers away from Mangilao, Guam







STORIES FROM OUR PARTNERS